Карточка аэропорта UWOO

Внимание!
Информация на этой странице в стадии наполнения.
Если вы не увидели какой-то информации, или заметили неточность - пожалуйста сообщите нам!
Спасибо!
Команда RU-STAFF
Название аэропортаОренбург
Название аэропорта (англ.)Orenburg
Превышение387 ft. (118 m.)
Координаты51°48', 55°27'
Высота перехода700m
Эшелон переходаBy ATC
Коды ответчика2440-2443
Зона ОрВДСамара РПИ (UWWW)
Данные METARUWOO 271130Z 06002MPS CAVOK M14/M16 Q1024 R08/850550 NOSIG RMK QFE757/1009
Проноз погоды (TAF)UWOO 271046Z 2712/2812 05003G08MPS 6000 -SN FEW005 BKN016 TXM08/2712Z TNM16/2803Z TEMPO 2720/2812 VRB01MPS BKN010
NOTAMshow/hide NOTAM
AWOS   TABLE

Информация о ВПП

ВПП Длина ВПП (м.) Покрытие Курс ВПП Частота ILS
082501Асфальтобетон79109
262501Асфальтобетон259109.3

Диспетчерские позиции

Позывной Наименование органа УВД Частота
UWOO_TWRОренбург- Вышка128.0
UWOO_R_APPОренбург - Круг120.400



Спутниковое изображение